SCP
0 0 0 0 0 0 0 0 0 0 0 0 0 0 0 0 0 0 0 0 0 0 0 0 0 0 0 0 0 0 0 0 0 0 0 0 0 0 0 0 0 0 0 0 0 0 0
0 0 0 0 0 0 0 0 0 0 0 0 0 0 0 0 0 0 0 0 0 0 0 0 0 0 0 0 0 0 0 0 0 0 0 0 0 0 0 0 0 0 0 0 0 0 0
0 0 0 0 0 0 0 0 -0 -0 0 0 0 0 0 0 0 0 0 0 0 0 0 0 0 0 0 0 0 0 0 0 0 0 0 0 0 0 0 0 0 0 0 0 0 0 0
0 0 0 0 0 0 0 0 0 0 0 0 0 0 0 0 0 0 0 0 0 0 0 0 0 0 0 0 0 0 0 0 0 0 0 0 0 0 0 0 0 0 0 0 0 0 0
0 0 0 0 0 0 0 -0 0 0 0 -0 0 0 0 0 0 0 0 0 0 0 0 0 0 0 0 0 0 0 0 0 0 0 0 0 0 0 0 0 0 0 0 0 0 0 0
0 0 0 0 0 0 0 -0 0 0 -0 -0 0 0 0 0 0 0 0 0 0 0 0 0 0 0 0 0 0 0 0 0 0 0 0 0 0 0 0 0 0 0 0 0 0 0 0
0 0 0 0 0 0 0 0 0 0 0 0 0 0 0 0 0 0 0 0 0 0 0 0 0 0 0 0 0 0 0 0 0 0 0 0 0 0 0 0 0 0 0 0 0 0 0
0 0 0 0 0 0 0 -0 0 0 -0 0 0 0 0 0 0 0 0 0 0 0 0 0 0 0 -0 0 0 0 0 0 0 0 0 0 0 0 0 0 0 0 0 0 0 0 0
0 0 0 0 0 -0 -0 -0 0 0 -0 0 0 0 0 0 0 0 0 0 0 0 0 0 0 0 -0 0 0 0 0 0 0 0 0 0 0 0 0 0 0 0 0 0 0 0 0
0 0 0 0 0 0 -0 -0 0 0 0 0 0 0 0 0 0 0 0 0 0 0 0 0 0 0 0 0 0 0 0 0 0 0 0 0 0 0 0 0 0 0 0 0 0 0 0
0 0 -0 -0 -0 -0 -0 0 0 0 0 0 -0 -0 -0 0 0 0 0 0 0 0 0 0 0 0 0 0 0 0 0 0 0 0 0 0 0 0 0 0 0 0 0 0 0 0 0
0 -0 -0 -0 -0 -0 -0 -0 -0 0 -0 -0 -0 -0 -0 0 0 0 0 0 0 0 0 0 0 0 -0 0 0 0 0 0 0 0 0 0 0 0 0 0 0 0 0 0 0 0 0
0 -0 -0 0 0 -0 -0 -0 -0 -0 -0 -0 -0 -0 0 0 0 0 0 0 0 0 0 0 0 0 -0 0 0 0 0 0 0 0 0 0 0 0 0 0 0 0 0 0 0 0 0
0 -0 0 0 -0 -0 -0 -0 -0 -0 -0 -0 -0 -0 -0 0 0 0 0 0 0 0 0 0 0 0 -0 0 0 0 0 0 0 0 0 0 0 0 0 0 0 0 0 0 0 0 0
0 0 -0 -0 -0 -0 -0 -0 -0 -0 -0 -0 -0 0 0 0 0 0 0 0 0 0 0 -0 0 0 0 0 0 0 0 0 0 0 0 0 0 0 0 0 0 0 0 0 0 0 0
0 0 -0 -0 -0 -0 -0 -0 -0 -0 -0 -0 -0 0 0 0 0 0 0 0 0 0 0 0 0 0 0 0 0 0 0 0 0 0 0 0 0 0 0 0 0 0 0 0 0 0 0
0 0 0 0 0 0 -0 -0 0 0 -0 -0 -0 0 0 0 0 0 0 0 0 -0 -0 0 0 0 0 0 -0 0 0 0 0 0 0 0 0 0 0 0 0 0 0 0 0 0 0
0 0 0 0 0 0 -0 -0 -0 -0 -0 0 -0 0 0 0 0 0 -0 -0 -0 -0 -0 -0 0 0 0 0 0 0 0 0 0 0 0 0 0 0 0 0 0 0 0 0 0 0 0
0 0 0 0 0 0 -0 0 0 -0 -0 -0 0 -0 -0 0 -0 0 0 0 -0 -0 -0 -0 -0 0 0 0 0 0 0 0 0 0 0 0 0 0 0 0 0 0 0 0 0 0 0
0 0 0 0 0 0 0 -0 -0 -0 -0 -0 0 0 0 0 0 0 0 0 0 0 0 -0 -0 0 0 0 0 0 0 0 0 0 0 0 0 0 0 0 0 0 0 0 0 0 0
-0 -0 0 0 0 0 0 0 -0 -0 0 0 0 0 0 0 0 0 0 0 0 0 -0 -0 -0 0 0 0 0 0 0 0 0 0 0 0 0 0 0 0 0 0 0 0 0 0 0
-0 -0 -0 0 0 -0 -0 0 0 -0 0 0 0 0 0 0 -0 0 0 0 0 0 0 0 -0 -0 0 0 0 0 0 0 0 0 0 0 0 0 0 0 0 0 0 0 0 0 0
-0 -0 0 -0 -0 -0 -0 -0 -0 -0 0 0 0 0 0 0 0 0 0 0 0 0 0 0 -0 -0 0 0 0 0 0 0 0 0 0 0 0 0 0 0 0 0 0 0 0 0 0
-0 -0 0 -0 -0 -0 -0 -0 -0 -0 0 0 0 0 0 0 0 0 0 0 0 0 0 0 0 -0 0 0 -0 0 0 0 0 0 0 0 0 0 0 0 0 0 0 0 0 0 0
0 -0 -0 -0 -0 -0 -0 -0 -0 -0 0 0 0 0 0 0 0 0 0 0 0 0 0 0 0 0 0 0 0 0 0 0 0 0 0 0 0 0 0 0 0 0 0 0 0 0 0
-0 -0 -0 -0 -0 -0 -0 -0 -0 -0 0 0 0 0 0 0 0 0 0 0 0 0 0 0 0 0 0 0 0 0 -0 0 0 0 0 0 0 0 0 0 0 0 0 0 0 0 0
0 -0 -0 -0 -0 -0 -0 -0 -0 -0 0 0 0 0 0 0 0 0 0 0 0 0 0 0 0 0 0 0 0 0 0 0 0 -0 0 0 0 0 0 0 0 0 0 0 0 0 0
-0 0 0 0 0 -0 -0 -0 -0 0 0 0 0 0 0 0 0 0 -0 -0 0 0 0 0 0 0 0 0 0 0 0 0 0 0 0 0 0 0 0 0 0 0 0 0 0 0 0
-0 -0 -0 0 0 0 -0 -0 0 -0 0 0 0 0 0 0 0 0 0 0 0 0 0 0 0 0 0 0 0 0 0 0 0 0 0 0 0 0 0 0 0 0 0 0 0 0 0
Wind_Speed_500mb
41 44 44 43 43 43 43 42 42 40 38 34 30 24 20 21 18 16 13 10 11 20 26 26 19 20 21 27 17 12 23 39 35 40 48 33 21 17 12 8 10 4 13 23 17 17 16
46 48 49 47 46 47 47 47 43 42 42 40 33 28 22 22 19 17 14 12 12 15 20 27 22 19 16 11 35 23 21 33 32 35 41 37 23 28 12 7 7 2 19 36 17 18 6
50 48 49 51 53 53 49 49 48 45 44 43 38 34 27 23 21 16 13 12 13 16 19 23 21 20 24 28 14 24 25 35 34 34 38 29 26 26 26 10 8 10 10 12 13 9 8
50 51 52 50 51 47 55 51 51 51 48 46 43 36 33 25 21 16 13 10 11 15 17 20 19 15 15 32 31 25 30 39 39 31 33 25 23 17 12 7 7 6 7 5 1 3 6
52 52 55 56 55 51 53 53 51 53 52 48 47 43 35 29 22 17 13 11 10 14 15 14 16 12 11 20 31 35 37 48 43 32 28 28 24 12 14 11 7 6 12 10 5 11 7
56 54 51 53 53 54 56 56 50 48 52 48 45 43 38 30 24 18 12 9 7 9 7 9 13 5 28 15 31 39 49 53 50 41 27 20 8 8 7 11 29 13 17 22 12 7 8
53 51 53 56 63 61 57 52 56 49 47 46 47 38 39 32 24 17 11 6 4 5 20 17 12 15 3 28 21 42 48 53 39 35 9 14 7 13 19 13 4 15 6 11 6 4 5
54 55 66 69 71 66 62 58 47 50 46 46 48 42 40 33 24 19 14 7 6 3 10 29 38 24 37 14 11 36 51 31 27 23 14 10 13 16 19 16 12 10 13 7 3 9 5
55 63 65 67 66 54 47 53 51 42 45 43 48 41 38 32 25 20 15 15 8 5 5 16 33 38 33 31 17 40 53 41 19 17 25 13 10 16 19 20 21 20 25 10 8 6 3
56 60 60 60 58 12 30 46 48 41 45 40 46 41 40 34 23 18 14 12 6 4 6 11 12 19 34 23 17 40 60 40 11 30 28 13 12 21 23 19 7 10 21 13 14 6 8
54 55 56 56 52 46 40 47 45 41 41 45 46 45 40 29 17 23 11 13 6 7 6 8 8 21 24 21 10 37 59 33 23 16 11 12 33 32 29 23 24 7 24 16 6 7 6
53 50 53 51 53 51 51 47 45 45 46 48 47 47 41 30 25 19 13 12 14 11 12 5 4 16 16 35 13 28 40 21 16 15 12 8 8 16 10 15 10 28 22 12 7 5 3
46 49 50 49 48 48 49 51 49 50 50 46 53 50 40 32 20 15 15 19 8 7 8 6 5 8 18 16 14 27 33 17 14 13 12 11 7 1 13 25 33 18 24 4 5 3 6
46 46 47 47 49 47 50 52 54 54 52 56 50 46 31 20 16 19 33 5 7 9 9 3 6 3 11 15 14 27 39 23 10 7 7 10 9 14 11 14 16 28 8 8 9 8 6
48 43 47 49 48 47 47 48 50 53 51 50 43 30 27 17 15 22 14 3 13 9 5 7 7 9 12 10 3 25 34 27 14 11 11 9 5 6 6 9 27 9 6 9 13 6 6
41 45 47 44 43 47 48 46 43 42 37 34 37 22 16 14 19 17 6 8 7 6 6 5 5 14 13 18 8 8 36 17 16 9 5 9 11 5 2 12 5 13 13 10 5 9 5
38 41 44 45 48 48 48 46 41 36 33 25 12 6 4 6 11 5 6 10 8 19 14 8 7 9 9 10 22 11 27 3 11 16 6 11 6 4 5 2 11 7 6 7 9 5 8
30 33 36 37 38 39 40 36 24 20 17 6 5 4 5 3 6 4 5 6 8 11 11 6 7 10 6 6 9 9 16 5 11 38 25 7 8 9 6 7 2 4 11 8 7 8 0
26 25 25 27 28 26 23 19 15 11 2 4 2 3 2 8 4 3 5 7 9 5 6 6 6 5 6 3 6 7 14 5 5 9 17 12 5 8 7 9 6 6 6 9 10 5 5
19 19 20 17 19 20 15 10 4 6 7 3 3 4 1 6 7 5 2 5 5 7 5 15 10 9 5 12 11 7 8 5 5 14 21 15 8 7 11 8 13 10 10 9 10 6 7
12 12 10 12 14 9 4 3 8 14 4 8 4 2 0 2 5 5 1 8 10 11 5 19 8 15 3 9 4 4 7 14 13 9 11 9 9 8 12 6 7 18 19 14 7 9 9
7 12 11 8 6 1 8 6 9 14 7 5 4 8 5 3 7 4 5 4 5 8 5 8 11 17 25 11 11 2 13 8 6 9 8 8 6 6 13 14 10 8 11 14 10 9 10
0 7 17 13 8 2 6 6 12 10 9 0 8 10 2 12 7 7 3 1 5 2 5 12 3 10 26 19 19 30 48 33 16 7 8 7 11 7 3 8 9 7 11 11 8 6 14
9 5 19 16 12 9 4 4 10 11 5 1 9 7 5 2 4 3 4 6 9 5 6 9 19 6 10 12 9 20 47 53 54 36 15 10 9 6 5 7 3 9 6 5 9 8 11
8 10 11 18 11 7 3 4 8 13 11 3 7 3 5 5 3 8 5 8 3 14 10 7 17 15 16 13 7 10 9 11 16 13 18 12 8 8 8 5 7 3 6 11 13 8 4
15 13 14 20 15 9 4 2 9 14 14 7 2 4 4 22 5 4 5 5 3 4 11 12 13 16 10 7 8 6 3 5 5 9 10 12 15 7 6 11 10 10 3 5 7 3 7
16 13 10 9 11 10 7 2 2 7 12 12 3 3 3 14 7 4 3 5 7 8 3 7 7 7 14 6 7 5 0 1 4 9 3 7 8 7 3 4 13 12 11 5 12 10 19
22 18 14 12 13 13 11 10 11 12 10 10 8 3 2 13 13 9 6 1 2 7 7 4 5 6 7 8 6 4 5 4 5 4 8 9 10 5 5 8 9 16 8 14 8 23 23
28 26 23 21 19 17 14 14 16 18 16 10 4 2 6 12 15 17 14 11 9 3 6 8 7 4 5 8 2 6 4 4 3 3 2 3 8 7 11 10 5 19 2 11 20 25 19
Wind_Direction_500mb
306 301 298 293 287 281 276 270 262 258 253 253 247 251 247 258 261 253 248 249 267 243 234 242 251 246 220 221 222 280 208 209 210 206 216 202 202 159 165 155 244 209 305 283 265 278 289
309 305 299 293 288 280 272 267 262 252 249 245 244 243 246 245 252 250 241 248 262 255 240 238 240 245 243 256 235 247 211 198 200 199 208 210 200 186 146 150 197 271 302 284 280 260 251
310 304 293 288 283 279 272 266 258 250 244 243 240 239 238 243 246 249 235 233 254 259 249 240 237 242 245 231 236 229 200 206 196 199 184 193 191 174 151 136 200 299 336 298 248 251 218
311 308 304 293 285 272 266 265 256 248 241 236 234 234 232 236 239 247 240 246 250 257 263 245 240 237 249 240 231 217 206 202 182 174 175 163 163 142 109 132 117 187 313 227 164 175 258
317 312 305 298 290 281 270 262 254 244 238 230 230 229 230 230 232 239 244 261 259 260 261 256 234 219 251 230 220 217 199 196 171 161 150 156 144 142 135 149 96 207 204 208 178 64 315
321 317 309 299 292 281 268 256 249 239 231 227 225 227 225 222 225 229 235 261 262 239 232 220 220 210 242 224 203 206 198 172 167 160 138 153 166 148 138 189 197 175 191 208 207 16 357
329 324 315 305 299 282 264 256 240 234 224 216 216 216 217 212 213 212 214 221 178 220 209 208 217 201 280 215 244 210 214 183 175 175 184 154 166 183 184 182 84 134 111 148 13 347 298
335 330 322 314 303 282 261 241 232 222 214 207 205 202 207 200 200 195 195 179 182 172 295 245 241 229 238 245 288 230 213 197 166 185 140 131 200 192 166 163 167 162 143 145 337 353 100
346 339 335 330 318 289 244 221 210 207 201 196 195 194 190 185 188 188 195 197 218 293 270 269 231 228 222 228 253 228 203 214 191 186 163 171 188 154 155 176 180 189 168 141 129 343 58
352 355 356 356 357 7 177 185 189 190 187 183 180 179 178 174 171 175 183 176 196 176 37 267 210 219 200 211 261 228 204 191 184 199 151 190 164 173 160 151 162 151 173 132 114 161 166
7 9 17 25 39 74 118 144 158 165 166 167 167 169 166 159 161 170 168 149 153 166 23 231 185 167 179 177 232 207 202 196 232 185 143 176 177 181 179 169 148 145 120 146 130 96 89
24 26 34 46 64 85 108 125 136 143 151 155 158 152 147 155 155 155 150 142 149 48 254 303 258 174 143 199 234 155 188 203 147 164 190 136 193 180 152 137 132 138 106 85 77 123 186
38 38 48 59 74 90 104 116 126 133 136 142 144 139 152 154 153 154 150 153 52 141 331 269 251 227 177 165 239 175 180 173 165 141 148 136 131 171 166 113 139 147 138 87 83 147 193
45 49 59 71 81 96 107 115 122 129 138 144 144 154 156 166 156 149 147 100 210 229 253 358 277 307 227 150 247 180 180 185 236 110 134 146 161 186 168 143 169 165 156 152 144 174 172
51 59 68 76 84 92 104 113 124 131 136 135 140 144 145 144 152 159 144 152 210 233 263 287 312 247 209 153 218 166 185 173 173 216 132 142 97 59 86 139 146 185 160 152 99 1 80
59 69 77 84 92 97 101 110 119 130 140 150 141 147 128 139 154 148 96 266 253 241 250 205 234 214 215 147 151 226 178 178 161 180 88 172 104 334 212 103 41 179 166 80 22 135 182
77 77 81 86 95 106 112 117 124 130 130 141 151 130 109 130 161 146 160 243 269 267 229 213 257 293 265 137 173 215 158 20 155 143 247 140 126 163 112 199 169 132 149 87 115 126 149
82 84 93 94 104 111 116 108 103 116 133 166 322 53 137 166 79 124 175 217 291 263 266 290 259 240 289 109 140 161 163 112 155 144 161 230 101 116 126 246 291 99 136 138 127 225 256
83 87 98 102 111 113 113 112 111 115 18 285 147 112 195 349 125 290 250 245 242 277 291 300 276 33 324 58 118 86 104 30 218 112 156 182 114 102 78 11 13 169 172 123 111 72 191
83 89 88 93 108 111 105 97 77 356 17 23 146 33 8 75 66 150 259 318 311 279 293 297 300 312 25 24 31 123 126 70 79 104 103 109 91 156 169 139 130 145 133 143 116 112 165
136 112 105 93 96 86 63 88 38 7 334 2 66 71 98 279 342 324 349 351 345 9 306 353 19 356 323 25 97 86 121 105 51 39 64 84 99 85 33 43 94 164 166 157 118 148 131
184 173 152 145 152 25 45 88 349 9 4 358 130 157 139 27 321 39 4 344 329 324 322 0 81 32 40 47 35 48 144 71 92 20 72 23 137 85 34 14 70 99 130 135 115 141 97
294 204 185 183 196 253 325 338 348 346 5 228 135 138 266 343 355 73 250 209 307 270 10 39 356 63 53 36 36 72 76 77 80 113 104 93 134 82 275 342 66 7 197 151 147 157 145
74 115 184 196 205 226 284 308 345 344 323 76 164 161 145 341 55 238 349 70 10 341 147 2 35 59 7 12 135 62 67 57 54 33 42 114 95 67 147 16 67 252 339 177 140 192 211
141 143 170 195 203 198 212 2 28 31 37 164 174 174 158 111 271 342 328 118 76 36 45 46 41 27 4 11 55 40 354 39 12 38 28 34 89 86 135 146 281 303 192 149 161 220 242
199 190 185 197 204 220 224 130 49 43 42 56 143 142 151 127 238 321 317 322 89 50 354 13 39 27 26 58 58 90 110 231 28 5 15 71 59 110 86 116 180 231 176 176 144 310 174
208 208 202 195 194 180 182 208 35 38 27 10 17 145 158 107 149 122 1 314 340 102 93 326 355 30 18 36 61 95 58 256 135 119 219 38 17 104 100 129 285 243 237 104 96 225 158
212 215 220 227 231 234 230 238 251 269 297 335 344 332 219 102 117 150 184 221 340 349 130 130 47 1 51 61 104 231 113 206 81 201 174 157 129 159 98 69 289 178 119 161 179 136 148
219 224 230 237 241 244 248 254 260 261 258 262 294 30 77 98 119 114 94 80 93 97 349 36 116 64 66 93 104 118 90 53 110 217 52 331 164 183 179 209 254 197 59 156 157 159 167
Wind_Speed_850mb
41 44 44 43 43 43 43 42 42 40 38 34 30 24 20 21 18 16 13 10 11 20 26 26 19 20 21 27 17 12 23 39 35 40 48 33 21 17 12 8 10 4 13 23 17 17 16
46 48 49 47 46 47 47 47 43 42 42 40 33 28 22 22 19 17 14 12 12 15 20 27 22 19 16 11 35 23 21 33 32 35 41 37 23 28 12 7 7 2 19 36 17 18 6
50 48 49 51 53 53 49 49 48 45 44 43 38 34 27 23 21 16 13 12 13 16 19 23 21 20 24 28 14 24 25 35 34 34 38 29 26 26 26 10 8 10 10 12 13 9 8
50 51 52 50 51 47 55 51 51 51 48 46 43 36 33 25 21 16 13 10 11 15 17 20 19 15 15 32 31 25 30 39 39 31 33 25 23 17 12 7 7 6 7 5 1 3 6
52 52 55 56 55 51 53 53 51 53 52 48 47 43 35 29 22 17 13 11 10 14 15 14 16 12 11 20 31 35 37 48 43 32 28 28 24 12 14 11 7 6 12 10 5 11 7
56 54 51 53 53 54 56 56 50 48 52 48 45 43 38 30 24 18 12 9 7 9 7 9 13 5 28 15 31 39 49 53 50 41 27 20 8 8 7 11 29 13 17 22 12 7 8
53 51 53 56 63 61 57 52 56 49 47 46 47 38 39 32 24 17 11 6 4 5 20 17 12 15 3 28 21 42 48 53 39 35 9 14 7 13 19 13 4 15 6 11 6 4 5
54 55 66 69 71 66 62 58 47 50 46 46 48 42 40 33 24 19 14 7 6 3 10 29 38 24 37 14 11 36 51 31 27 23 14 10 13 16 19 16 12 10 13 7 3 9 5
55 63 65 67 66 54 47 53 51 42 45 43 48 41 38 32 25 20 15 15 8 5 5 16 33 38 33 31 17 40 53 41 19 17 25 13 10 16 19 20 21 20 25 10 8 6 3
56 60 60 60 58 12 30 46 48 41 45 40 46 41 40 34 23 18 14 12 6 4 6 11 12 19 34 23 17 40 60 40 11 30 28 13 12 21 23 19 7 10 21 13 14 6 8
54 55 56 56 52 46 40 47 45 41 41 45 46 45 40 29 17 23 11 13 6 7 6 8 8 21 24 21 10 37 59 33 23 16 11 12 33 32 29 23 24 7 24 16 6 7 6
53 50 53 51 53 51 51 47 45 45 46 48 47 47 41 30 25 19 13 12 14 11 12 5 4 16 16 35 13 28 40 21 16 15 12 8 8 16 10 15 10 28 22 12 7 5 3
46 49 50 49 48 48 49 51 49 50 50 46 53 50 40 32 20 15 15 19 8 7 8 6 5 8 18 16 14 27 33 17 14 13 12 11 7 1 13 25 33 18 24 4 5 3 6
46 46 47 47 49 47 50 52 54 54 52 56 50 46 31 20 16 19 33 5 7 9 9 3 6 3 11 15 14 27 39 23 10 7 7 10 9 14 11 14 16 28 8 8 9 8 6
48 43 47 49 48 47 47 48 50 53 51 50 43 30 27 17 15 22 14 3 13 9 5 7 7 9 12 10 3 25 34 27 14 11 11 9 5 6 6 9 27 9 6 9 13 6 6
41 45 47 44 43 47 48 46 43 42 37 34 37 22 16 14 19 17 6 8 7 6 6 5 5 14 13 18 8 8 36 17 16 9 5 9 11 5 2 12 5 13 13 10 5 9 5
38 41 44 45 48 48 48 46 41 36 33 25 12 6 4 6 11 5 6 10 8 19 14 8 7 9 9 10 22 11 27 3 11 16 6 11 6 4 5 2 11 7 6 7 9 5 8
30 33 36 37 38 39 40 36 24 20 17 6 5 4 5 3 6 4 5 6 8 11 11 6 7 10 6 6 9 9 16 5 11 38 25 7 8 9 6 7 2 4 11 8 7 8 0
26 25 25 27 28 26 23 19 15 11 2 4 2 3 2 8 4 3 5 7 9 5 6 6 6 5 6 3 6 7 14 5 5 9 17 12 5 8 7 9 6 6 6 9 10 5 5
19 19 20 17 19 20 15 10 4 6 7 3 3 4 1 6 7 5 2 5 5 7 5 15 10 9 5 12 11 7 8 5 5 14 21 15 8 7 11 8 13 10 10 9 10 6 7
12 12 10 12 14 9 4 3 8 14 4 8 4 2 0 2 5 5 1 8 10 11 5 19 8 15 3 9 4 4 7 14 13 9 11 9 9 8 12 6 7 18 19 14 7 9 9
7 12 11 8 6 1 8 6 9 14 7 5 4 8 5 3 7 4 5 4 5 8 5 8 11 17 25 11 11 2 13 8 6 9 8 8 6 6 13 14 10 8 11 14 10 9 10
0 7 17 13 8 2 6 6 12 10 9 0 8 10 2 12 7 7 3 1 5 2 5 12 3 10 26 19 19 30 48 33 16 7 8 7 11 7 3 8 9 7 11 11 8 6 14
9 5 19 16 12 9 4 4 10 11 5 1 9 7 5 2 4 3 4 6 9 5 6 9 19 6 10 12 9 20 47 53 54 36 15 10 9 6 5 7 3 9 6 5 9 8 11
8 10 11 18 11 7 3 4 8 13 11 3 7 3 5 5 3 8 5 8 3 14 10 7 17 15 16 13 7 10 9 11 16 13 18 12 8 8 8 5 7 3 6 11 13 8 4
15 13 14 20 15 9 4 2 9 14 14 7 2 4 4 22 5 4 5 5 3 4 11 12 13 16 10 7 8 6 3 5 5 9 10 12 15 7 6 11 10 10 3 5 7 3 7
16 13 10 9 11 10 7 2 2 7 12 12 3 3 3 14 7 4 3 5 7 8 3 7 7 7 14 6 7 5 0 1 4 9 3 7 8 7 3 4 13 12 11 5 12 10 19
22 18 14 12 13 13 11 10 11 12 10 10 8 3 2 13 13 9 6 1 2 7 7 4 5 6 7 8 6 4 5 4 5 4 8 9 10 5 5 8 9 16 8 14 8 23 23
28 26 23 21 19 17 14 14 16 18 16 10 4 2 6 12 15 17 14 11 9 3 6 8 7 4 5 8 2 6 4 4 3 3 2 3 8 7 11 10 5 19 2 11 20 25 19
Wind_Direction_850mb
306 301 298 293 287 281 276 270 262 258 253 253 247 251 247 258 261 253 248 249 267 243 234 242 251 246 220 221 222 280 208 209 210 206 216 202 202 159 165 155 244 209 305 283 265 278 289
309 305 299 293 288 280 272 267 262 252 249 245 244 243 246 245 252 250 241 248 262 255 240 238 240 245 243 256 235 247 211 198 200 199 208 210 200 186 146 150 197 271 302 284 280 260 251
310 304 293 288 283 279 272 266 258 250 244 243 240 239 238 243 246 249 235 233 254 259 249 240 237 242 245 231 236 229 200 206 196 199 184 193 191 174 151 136 200 299 336 298 248 251 218
311 308 304 293 285 272 266 265 256 248 241 236 234 234 232 236 239 247 240 246 250 257 263 245 240 237 249 240 231 217 206 202 182 174 175 163 163 142 109 132 117 187 313 227 164 175 258
317 312 305 298 290 281 270 262 254 244 238 230 230 229 230 230 232 239 244 261 259 260 261 256 234 219 251 230 220 217 199 196 171 161 150 156 144 142 135 149 96 207 204 208 178 64 315
321 317 309 299 292 281 268 256 249 239 231 227 225 227 225 222 225 229 235 261 262 239 232 220 220 210 242 224 203 206 198 172 167 160 138 153 166 148 138 189 197 175 191 208 207 16 357
329 324 315 305 299 282 264 256 240 234 224 216 216 216 217 212 213 212 214 221 178 220 209 208 217 201 280 215 244 210 214 183 175 175 184 154 166 183 184 182 84 134 111 148 13 347 298
335 330 322 314 303 282 261 241 232 222 214 207 205 202 207 200 200 195 195 179 182 172 295 245 241 229 238 245 288 230 213 197 166 185 140 131 200 192 166 163 167 162 143 145 337 353 100
346 339 335 330 318 289 244 221 210 207 201 196 195 194 190 185 188 188 195 197 218 293 270 269 231 228 222 228 253 228 203 214 191 186 163 171 188 154 155 176 180 189 168 141 129 343 58
352 355 356 356 357 7 177 185 189 190 187 183 180 179 178 174 171 175 183 176 196 176 37 267 210 219 200 211 261 228 204 191 184 199 151 190 164 173 160 151 162 151 173 132 114 161 166
7 9 17 25 39 74 118 144 158 165 166 167 167 169 166 159 161 170 168 149 153 166 23 231 185 167 179 177 232 207 202 196 232 185 143 176 177 181 179 169 148 145 120 146 130 96 89
24 26 34 46 64 85 108 125 136 143 151 155 158 152 147 155 155 155 150 142 149 48 254 303 258 174 143 199 234 155 188 203 147 164 190 136 193 180 152 137 132 138 106 85 77 123 186
38 38 48 59 74 90 104 116 126 133 136 142 144 139 152 154 153 154 150 153 52 141 331 269 251 227 177 165 239 175 180 173 165 141 148 136 131 171 166 113 139 147 138 87 83 147 193
45 49 59 71 81 96 107 115 122 129 138 144 144 154 156 166 156 149 147 100 210 229 253 358 277 307 227 150 247 180 180 185 236 110 134 146 161 186 168 143 169 165 156 152 144 174 172
51 59 68 76 84 92 104 113 124 131 136 135 140 144 145 144 152 159 144 152 210 233 263 287 312 247 209 153 218 166 185 173 173 216 132 142 97 59 86 139 146 185 160 152 99 1 80
59 69 77 84 92 97 101 110 119 130 140 150 141 147 128 139 154 148 96 266 253 241 250 205 234 214 215 147 151 226 178 178 161 180 88 172 104 334 212 103 41 179 166 80 22 135 182
77 77 81 86 95 106 112 117 124 130 130 141 151 130 109 130 161 146 160 243 269 267 229 213 257 293 265 137 173 215 158 20 155 143 247 140 126 163 112 199 169 132 149 87 115 126 149
82 84 93 94 104 111 116 108 103 116 133 166 322 53 137 166 79 124 175 217 291 263 266 290 259 240 289 109 140 161 163 112 155 144 161 230 101 116 126 246 291 99 136 138 127 225 256
83 87 98 102 111 113 113 112 111 115 18 285 147 112 195 349 125 290 250 245 242 277 291 300 276 33 324 58 118 86 104 30 218 112 156 182 114 102 78 11 13 169 172 123 111 72 191
83 89 88 93 108 111 105 97 77 356 17 23 146 33 8 75 66 150 259 318 311 279 293 297 300 312 25 24 31 123 126 70 79 104 103 109 91 156 169 139 130 145 133 143 116 112 165
136 112 105 93 96 86 63 88 38 7 334 2 66 71 98 279 342 324 349 351 345 9 306 353 19 356 323 25 97 86 121 105 51 39 64 84 99 85 33 43 94 164 166 157 118 148 131
184 173 152 145 152 25 45 88 349 9 4 358 130 157 139 27 321 39 4 344 329 324 322 0 81 32 40 47 35 48 144 71 92 20 72 23 137 85 34 14 70 99 130 135 115 141 97
294 204 185 183 196 253 325 338 348 346 5 228 135 138 266 343 355 73 250 209 307 270 10 39 356 63 53 36 36 72 76 77 80 113 104 93 134 82 275 342 66 7 197 151 147 157 145
74 115 184 196 205 226 284 308 345 344 323 76 164 161 145 341 55 238 349 70 10 341 147 2 35 59 7 12 135 62 67 57 54 33 42 114 95 67 147 16 67 252 339 177 140 192 211
141 143 170 195 203 198 212 2 28 31 37 164 174 174 158 111 271 342 328 118 76 36 45 46 41 27 4 11 55 40 354 39 12 38 28 34 89 86 135 146 281 303 192 149 161 220 242
199 190 185 197 204 220 224 130 49 43 42 56 143 142 151 127 238 321 317 322 89 50 354 13 39 27 26 58 58 90 110 231 28 5 15 71 59 110 86 116 180 231 176 176 144 310 174
208 208 202 195 194 180 182 208 35 38 27 10 17 145 158 107 149 122 1 314 340 102 93 326 355 30 18 36 61 95 58 256 135 119 219 38 17 104 100 129 285 243 237 104 96 225 158
212 215 220 227 231 234 230 238 251 269 297 335 344 332 219 102 117 150 184 221 340 349 130 130 47 1 51 61 104 231 113 206 81 201 174 157 129 159 98 69 289 178 119 161 179 136 148
219 224 230 237 241 244 248 254 260 261 258 262 294 30 77 98 119 114 94 80 93 97 349 36 116 64 66 93 104 118 90 53 110 217 52 331 164 183 179 209 254 197 59 156 157 159 167